Location: Bannatyne
(13.0833°N, 59.5333°W)
Time: 04:23:30
(UTC+00:00)

deb Explorer IX - Pass Details

Date: 24 January 2020
Orbit: 549 x 1099 km, 38.8° (Epoch: 19 February)

Event Time Altitude Azimuth Distance (km) Brightness Sun altitude
Rises 01:08:36 0° 261° (W) 3,611 ? -46.1°
Reaches altitude 10° 01:11:31 10° 272° (W) 2,744 ? -46.8°
Enters shadow 01:12:53 16° 281° (W) 2,391 ? -47.1°
Maximum altitude 01:17:12 28° 330° (NNW) 1,840 - -48.2°
Drops below altitude 10° 01:23:16 10° 27° (NNE) 2,933 - -49.6°
Sets 01:26:31 0° 38° (NE) 3,900 - -50.3°
